Regional Weather Roundup
Issued by NWS

Home | Current Version | Previous Version | Graphics & Text | Print | Product List | Glossary On
Versions: 1 2 3 4 5 6 7 8 9 10 11 12 13 14 15 16 17 18 19 20 21 22 23 24 25 26 27 28 29 30 31 32 33 34 35 36 37 38 39 40 41 42 43 44 45 46 47 48 49 50
920
ASUS43 KLMK 241510
RWRKY
KENTUCKY REGIONAL WEATHER ROUNDUP
NATIONAL WEATHER SERVICE LOUISVILLE KY
1000 AM EST FRI FEB 24 2017

NOTE "FAIR" INDICATES FEW OR NO CLOUDS BELOW 12,000 FEET
WITH NO SIGNIFICANT WEATHER AND/OR OBSTRUCTIONS TO VISIBILITY.

KYZ001>023-026-027-061>063-070>075-241600-
WESTERN AND SOUTH CENTRAL KENTUCKY

CITY           SKY/WX    TMP DP  RH WIND       PRES   REMARKS
PADUCAH        PTSUNNY   67  54  63 SW10G18   29.61S
HENDERSON      PTSUNNY   66  55  68 S18G30    29.61R
OWENSBORO      MOSUNNY   69  58  67 S17G23    29.63F
HOPKINSVILLE   MOSUNNY   69  57  65 S23G30    29.69F
BOWLING GREEN  MOSUNNY   69  57  65 S23G31    29.73F
GLASGOW        SUNNY     69  56  64 S17G25    29.75S
$$

KYZ024-025-028>034-038-045-046-053-241600-
NORTH CENTRAL KENTUCKY

CITY           SKY/WX    TMP DP  RH WIND       PRES   REMARKS
LOUISVILLE/SDF PTSUNNY   71  55  56 S17G25    29.68F
LOUISVILLE/LOU SUNNY     69  56  62 S14G25    29.69F
FORT KNOX      MOSUNNY   69  57  65 S23G30    29.68F
$$

KYZ035>037-039>044-047>052-055>060-089>105-241600-
NORTHEAST KENTUCKY

CITY           SKY/WX    TMP DP  RH WIND       PRES   REMARKS
LEXINGTON      MOSUNNY   68  52  56 S20G29    29.75F
COVINGTON      PTSUNNY   67  55  65 S16G26    29.70S
FRANKFORT      SUNNY     69  54  58 S15G21    29.72S
$$

KYZ054-064>069-076>088-106>120-241600-
SOUTHEAST KENTUCKY

CITY           SKY/WX    TMP DP  RH WIND       PRES   REMARKS
JACKSON        SUNNY     65  50  58 VRB6      29.83S
LONDON         SUNNY     67  49  52 S13       29.82S
SOMERSET       SUNNY     66  50  55 S17G26    29.82F
MIDDLESBORO    SUNNY     65  51  60 S5        29.87R
MONTICELLO     MOSUNNY   69  54  58 S12G23    29.82S
$$





USA.gov is the U.S. government's official web portal to all federal, state and local government web resources and services.